,,PA_Meas_PMT16A,,PR_Meas_QMR101_102,,RH_Meas_QMH101,,SR_Meas_QMS101,,TA_Meas_QMH101,,GenWind,,GenWind,
time,status,PA,status,PR,status,RH,status,SR,status,TA,status,DirAvg,status,SpdAvg,
2013-01-24, 00:00:05,VALID,919.81,VALID,0,VALID,96.8936,VALID,0,VALID,19.7043,VALID,117,VALID,0.739844,
2013-01-24, 00:01:05,VALID,919.809,VALID,0,VALID,96.9165,VALID,0,VALID,19.6848,VALID,117,VALID,0.603125,
2013-01-24, 00:02:05,VALID,919.803,VALID,0,VALID,96.9089,VALID,0,VALID,19.7043,VALID,117,VALID,0.635547,
2013-01-24, 00:03:05,VALID,919.802,VALID,0,VALID,96.9317,VALID,0,VALID,19.7253,VALID,117,VALID,0.851953,
2013-01-24, 00:04:05,VALID,919.765,VALID,0,VALID,96.9241,VALID,0,VALID,19.7043,VALID,117,VALID,0.8,
2013-01-24, 00:05:05,VALID,919.774,VALID,0,VALID,96.947,VALID,0,VALID,19.7238,VALID,117,VALID,0.998828,
2013-01-24, 00:06:05,VALID,919.784,VALID,0,VALID,96.9241,VALID,0.107441,VALID,19.6638,VALID,116,VALID,0.869531,
2013-01-24, 00:07:05,VALID,919.748,VALID,0,VALID,96.9165,VALID,0.107441,VALID,19.6443,VALID,116,VALID,0.471484,
2013-01-24, 00:08:05,VALID,919.789,VALID,0,VALID,96.9089,VALID,0,VALID,19.6248,VALID,117,VALID,0.385547,
2013-01-24, 00:09:05,VALID,919.757,VALID,0,VALID,96.947,VALID,0,VALID,19.6443,VALID,116,VALID,0.737891,
2013-01-24, 00:10:05,VALID,919.77,VALID,0,VALID,96.9546,VALID,0,VALID,19.6443,VALID,116,VALID,0.751562,
2013-01-24, 00:11:05,VALID,919.756,VALID,0,VALID,96.9394,VALID,0.107441,VALID,19.6638,VALID,116,VALID,1.08125,
2013-01-24, 00:12:05,VALID,919.746,VALID,0,VALID,96.9622,VALID,0.107441,VALID,19.6833,VALID,126,VALID,0.773047,
2013-01-24, 00:13:05,VALID,919.737,VALID,0,VALID,96.9927,VALID,0.107441,VALID,19.6638,VALID,126,VALID,0.663672,
2013-01-24, 00:14:05,VALID,919.719,VALID,0,VALID,96.9775,VALID,0.107441,VALID,19.6443,VALID,126,VALID,0.583984,
2013-01-24, 00:15:05,VALID,919.714,VALID,0,VALID,96.9698,VALID,0.107441,VALID,19.6443,VALID,126,VALID,0.384375,
2013-01-24, 00:16:05,VALID,919.768,VALID,0,VALID,96.9851,VALID,0.107441,VALID,19.6443,VALID,126,VALID,0.546484,
2013-01-24, 00:17:05,VALID,919.732,VALID,0,VALID,96.9851,VALID,0.107441,VALID,19.6443,VALID,125,VALID,0,
2013-01-24, 00:18:05,VALID,919.731,VALID,0,VALID,97.0003,VALID,0.107441,VALID,19.6443,VALID,125,VALID,0.149609,
2013-01-24, 00:19:05,VALID,919.74,VALID,0,VALID,96.9927,VALID,0,VALID,19.6443,VALID,125,VALID,0.164063,
2013-01-24, 00:20:05,VALID,919.757,VALID,0,VALID,97.008,VALID,0,VALID,19.6638,VALID,125,VALID,0.150781,
2013-01-24, 00:21:05,VALID,919.77,VALID,0,VALID,97.008,VALID,0,VALID,19.6863,VALID,125,VALID,0.168359,
2013-01-24, 00:22:05,VALID,919.756,VALID,0,VALID,97.0232,VALID,0,VALID,19.6458,VALID,130,VALID,0.483984,
2013-01-24, 00:23:05,VALID,919.773,VALID,0,VALID,97.0232,VALID,0,VALID,19.6653,VALID,132,VALID,0.528125,
2013-01-24, 00:24:05,VALID,919.763,VALID,0,VALID,97.0385,VALID,0,VALID,19.6458,VALID,217,VALID,0.694922,
2013-01-24, 00:25:05,VALID,919.778,VALID,0,VALID,97.0003,VALID,0,VALID,19.6473,VALID,216,VALID,0.653516,
2013-01-24, 00:26:05,VALID,919.749,VALID,0,VALID,97.0232,VALID,0,VALID,19.6458,VALID,217,VALID,0.605078,
2013-01-24, 00:27:05,VALID,919.766,VALID,0,VALID,97.0308,VALID,0,VALID,19.6458,VALID,217,VALID,0.369922,
2013-01-24, 00:28:05,VALID,919.703,VALID,0,VALID,97.0308,VALID,0,VALID,19.6458,VALID,217,VALID,0.0425781,
2013-01-24, 00:29:05,VALID,919.7,VALID,0,VALID,97.0613,VALID,0,VALID,19.6458,VALID,217,VALID,0,
2013-01-24, 00:30:05,VALID,919.693,VALID,0,VALID,97.0537,VALID,0,VALID,19.6848,VALID,217,VALID,0,
2013-01-24, 00:31:05,VALID,919.652,VALID,0,VALID,97.0385,VALID,0,VALID,19.6848,VALID,217,VALID,0,
2013-01-24, 00:32:05,VALID,919.667,VALID,0,VALID,97.069,VALID,0,VALID,19.6653,VALID,217,VALID,0,
2013-01-24, 00:33:05,VALID,919.645,VALID,0,VALID,97.0613,VALID,0,VALID,19.6458,VALID,217,VALID,0.471094,
2013-01-24, 00:34:05,VALID,919.636,VALID,0,VALID,97.0613,VALID,0.107441,VALID,19.6263,VALID,217,VALID,0.608203,
2013-01-24, 00:35:05,VALID,919.612,VALID,0,VALID,97.0613,VALID,0,VALID,19.5873,VALID,217,VALID,0.4125,
2013-01-24, 00:36:05,VALID,919.593,VALID,0,VALID,97.0613,VALID,0,VALID,19.5678,VALID,217,VALID,0.319141,
2013-01-24, 00:37:05,VALID,919.572,VALID,0,VALID,97.0537,VALID,0,VALID,19.5288,VALID,216,VALID,0.483984,
2013-01-24, 00:38:05,VALID,919.552,VALID,0,VALID,97.0537,VALID,0,VALID,19.5498,VALID,217,VALID,0.426953,
2013-01-24, 00:39:05,VALID,919.544,VALID,0,VALID,97.069,VALID,0,VALID,19.5288,VALID,216,VALID,0.372656,
2013-01-24, 00:40:05,VALID,919.556,VALID,0,VALID,97.0766,VALID,0,VALID,19.5288,VALID,217,VALID,0.219141,
2013-01-24, 00:41:05,VALID,919.524,VALID,0,VALID,97.0766,VALID,0,VALID,19.5288,VALID,217,VALID,0.166797,
2013-01-24, 00:42:05,VALID,919.524,VALID,0,VALID,97.0918,VALID,0,VALID,19.5483,VALID,217,VALID,0.371484,
2013-01-24, 00:43:05,VALID,919.5,VALID,0,VALID,97.0842,VALID,0,VALID,19.5873,VALID,217,VALID,0.580469,
2013-01-24, 00:44:05,VALID,919.454,VALID,0,VALID,97.1071,VALID,0,VALID,19.5888,VALID,217,VALID,0.663672,
2013-01-24, 00:45:05,VALID,919.444,VALID,0,VALID,97.1299,VALID,0,VALID,19.5288,VALID,198,VALID,0.722656,
2013-01-24, 00:46:05,VALID,919.43,VALID,0,VALID,97.1223,VALID,0,VALID,19.5288,VALID,142,VALID,0.862891,
2013-01-24, 00:47:05,VALID,919.411,VALID,0,VALID,97.1071,VALID,0,VALID,19.5678,VALID,142,VALID,0.877344,
2013-01-24, 00:48:05,VALID,919.457,VALID,0,VALID,97.1147,VALID,0,VALID,19.6068,VALID,142,VALID,0.704687,
2013-01-24, 00:49:05,VALID,919.437,VALID,0,VALID,97.1147,VALID,0,VALID,19.5873,VALID,142,VALID,0.326953,
2013-01-24, 00:50:05,VALID,919.435,VALID,0,VALID,97.1299,VALID,0,VALID,19.5678,VALID,142,VALID,0.473047,
2013-01-24, 00:51:05,VALID,919.411,VALID,0,VALID,97.0994,VALID,0,VALID,19.5873,VALID,142,VALID,0.254297,
2013-01-24, 00:52:05,VALID,919.421,VALID,0,VALID,97.1223,VALID,0,VALID,19.5678,VALID,142,VALID,0.356641,
2013-01-24, 00:53:05,VALID,919.402,VALID,0,VALID,97.1071,VALID,0,VALID,19.5483,VALID,142,VALID,0.773047,
2013-01-24, 00:54:05,VALID,919.352,VALID,0,VALID,97.1071,VALID,0,VALID,19.5468,VALID,142,VALID,0.562891,
2013-01-24, 00:55:05,VALID,919.365,VALID,0,VALID,97.1223,VALID,0,VALID,19.5468,VALID,142,VALID,0.889453,
2013-01-24, 00:56:05,VALID,919.314,VALID,0,VALID,97.0994,VALID,0,VALID,19.5873,VALID,142,VALID,0.688281,
2013-01-24, 00:57:05,VALID,919.292,VALID,0,VALID,97.1299,VALID,0,VALID,19.5858,VALID,142,VALID,0.286719,
2013-01-24, 00:58:05,VALID,919.272,VALID,0,VALID,97.1223,VALID,0.107441,VALID,19.6053,VALID,142,VALID,0.173438,
2013-01-24, 00:59:05,VALID,919.244,VALID,0,VALID,97.1223,VALID,0,VALID,19.6443,VALID,142,VALID,0.241016,
2013-01-24, 01:00:05,VALID,919.212,VALID,0,VALID,97.1452,VALID,0,VALID,19.6443,VALID,142,VALID,0.435937,
2013-01-24, 01:01:05,VALID,919.202,VALID,0,VALID,97.1376,VALID,0,VALID,19.6638,VALID,142,VALID,0.493359,
2013-01-24, 01:02:05,VALID,919.17,VALID,0,VALID,97.1376,VALID,0,VALID,19.6443,VALID,142,VALID,0.594922,
2013-01-24, 01:03:05,VALID,919.191,VALID,0,VALID,97.1299,VALID,0.107441,VALID,19.6653,VALID,142,VALID,0.269531,
2013-01-24, 01:04:05,VALID,919.199,VALID,0,VALID,97.1223,VALID,0.107441,VALID,19.6638,VALID,142,VALID,0.197266,
2013-01-24, 01:05:05,VALID,919.163,VALID,0,VALID,97.1223,VALID,0.107441,VALID,19.6443,VALID,142,VALID,0.309375,
2013-01-24, 01:06:05,VALID,919.147,VALID,0,VALID,97.1376,VALID,0,VALID,19.6668,VALID,142,VALID,0.167187,
2013-01-24, 01:07:05,VALID,919.138,VALID,0,VALID,97.1223,VALID,0,VALID,19.6653,VALID,142,VALID,0.303125,
2013-01-24, 01:08:05,VALID,919.078,VALID,0,VALID,97.1452,VALID,0,VALID,19.6473,VALID,142,VALID,0.442969,
2013-01-24, 01:09:05,VALID,919.069,VALID,0,VALID,97.1376,VALID,0,VALID,19.6068,VALID,142,VALID,0.532031,
2013-01-24, 01:10:05,VALID,919.013,VALID,0,VALID,97.1528,VALID,0,VALID,19.5873,VALID,142,VALID,0.389844,
2013-01-24, 01:11:05,VALID,919.01,VALID,0,VALID,97.1452,VALID,0,VALID,19.5873,VALID,142,VALID,0.333984,
2013-01-24, 01:12:05,VALID,919.011,VALID,0,VALID,97.1299,VALID,0,VALID,19.6083,VALID,142,VALID,0.221094,
2013-01-24, 01:13:05,VALID,919,VALID,0,VALID,97.1223,VALID,0,VALID,19.5678,VALID,142,VALID,0,
2013-01-24, 01:14:05,VALID,919.024,VALID,0,VALID,97.1299,VALID,0,VALID,19.5483,VALID,142,VALID,0,
2013-01-24, 01:15:05,VALID,918.981,VALID,0,VALID,97.1376,VALID,0,VALID,19.5483,VALID,142,VALID,0,
2013-01-24, 01:16:05,VALID,919.005,VALID,0,VALID,97.1376,VALID,0,VALID,19.5288,VALID,142,VALID,0,
2013-01-24, 01:17:05,VALID,918.978,VALID,0,VALID,97.1299,VALID,0,VALID,19.5693,VALID,142,VALID,0.260156,
2013-01-24, 01:18:05,VALID,918.957,VALID,0,VALID,97.1376,VALID,0,VALID,19.5678,VALID,142,VALID,0.0289063,
2013-01-24, 01:19:05,VALID,918.94,VALID,0,VALID,97.1299,VALID,0,VALID,19.5873,VALID,142,VALID,0,
2013-01-24, 01:20:05,VALID,918.949,VALID,0,VALID,97.1299,VALID,0,VALID,19.6278,VALID,142,VALID,0,
2013-01-24, 01:21:05,VALID,918.937,VALID,0,VALID,97.1223,VALID,0,VALID,19.5693,VALID,142,VALID,0,
2013-01-24, 01:22:05,VALID,918.902,VALID,0,VALID,97.1223,VALID,0,VALID,19.5303,VALID,142,VALID,0,
2013-01-24, 01:23:05,VALID,918.879,VALID,0,VALID,97.0994,VALID,0,VALID,19.4718,VALID,142,VALID,0,
2013-01-24, 01:24:05,VALID,918.873,VALID,0,VALID,97.0766,VALID,0,VALID,19.4118,VALID,142,VALID,0,
2013-01-24, 01:25:05,VALID,918.811,VALID,0,VALID,97.1071,VALID,0,VALID,19.4718,VALID,142,VALID,0,
2013-01-24, 01:26:05,VALID,918.807,VALID,0,VALID,97.1147,VALID,0,VALID,19.4327,VALID,142,VALID,0.549609,
2013-01-24, 01:27:05,VALID,918.773,VALID,0,VALID,97.1147,VALID,0,VALID,19.4523,VALID,142,VALID,0.619531,
2013-01-24, 01:28:05,VALID,918.744,VALID,0,VALID,97.1147,VALID,0,VALID,19.4313,VALID,142,VALID,0.382422,
2013-01-24, 01:29:05,VALID,918.723,VALID,0,VALID,97.1223,VALID,0,VALID,19.3728,VALID,142,VALID,0.530859,
2013-01-24, 01:30:05,VALID,918.67,VALID,0,VALID,97.1452,VALID,0,VALID,19.3143,VALID,145,VALID,0.628125,
2013-01-24, 01:31:05,VALID,918.647,VALID,0,VALID,97.1223,VALID,0,VALID,19.3157,VALID,150,VALID,0.516797,
2013-01-24, 01:32:05,VALID,918.639,VALID,0,VALID,97.1299,VALID,0,VALID,19.2962,VALID,151,VALID,0.289844,
2013-01-24, 01:33:05,VALID,918.634,VALID,0,VALID,97.1147,VALID,0,VALID,19.2753,VALID,151,VALID,0.210156,
2013-01-24, 01:34:05,VALID,918.569,VALID,0,VALID,97.1299,VALID,0,VALID,19.2962,VALID,151,VALID,0.562891,
2013-01-24, 01:35:05,VALID,918.559,VALID,0,VALID,97.1452,VALID,0,VALID,19.2558,VALID,151,VALID,0.461719,
2013-01-24, 01:36:05,VALID,918.507,VALID,0,VALID,97.1376,VALID,0.107441,VALID,19.2558,VALID,151,VALID,0.48125,
2013-01-24, 01:37:05,VALID,918.52,VALID,0,VALID,97.1376,VALID,0,VALID,19.2558,VALID,151,VALID,0.152344,
2013-01-24, 01:38:05,VALID,918.522,VALID,0,VALID,97.1528,VALID,0.107441,VALID,19.2558,VALID,151,VALID,0,
2013-01-24, 01:39:05,VALID,918.505,VALID,0,VALID,97.1452,VALID,0,VALID,19.2348,VALID,151,VALID,0,
2013-01-24, 01:40:05,VALID,918.514,VALID,0,VALID,97.1528,VALID,0,VALID,19.2363,VALID,151,VALID,0,
2013-01-24, 01:41:05,VALID,918.468,VALID,0,VALID,97.1528,VALID,0,VALID,19.1568,VALID,151,VALID,0,
2013-01-24, 01:42:05,VALID,918.456,VALID,0,VALID,97.1299,VALID,0,VALID,19.1388,VALID,151,VALID,0,
2013-01-24, 01:43:05,VALID,918.419,VALID,0,VALID,97.1223,VALID,0,VALID,19.0803,VALID,151,VALID,0.675391,
2013-01-24, 01:44:05,VALID,918.428,VALID,0,VALID,97.1376,VALID,0,VALID,19.0608,VALID,151,VALID,0.623828,
2013-01-24, 01:45:05,VALID,918.37,VALID,0,VALID,97.1299,VALID,0,VALID,19.0203,VALID,127,VALID,0.878516,
2013-01-24, 01:46:05,VALID,918.38,VALID,0,VALID,97.1452,VALID,0,VALID,19.0218,VALID,127,VALID,0.826563,
2013-01-24, 01:47:05,VALID,918.403,VALID,0,VALID,97.1757,VALID,0,VALID,19.0023,VALID,127,VALID,0.624219,
2013-01-24, 01:48:05,VALID,918.399,VALID,0,VALID,97.1528,VALID,0,VALID,18.9633,VALID,127,VALID,0.210547,
2013-01-24, 01:49:05,VALID,918.418,VALID,0,VALID,97.1604,VALID,0,VALID,18.9438,VALID,127,VALID,0.391797,
2013-01-24, 01:50:05,VALID,918.4,VALID,0,VALID,97.1833,VALID,0,VALID,18.9438,VALID,127,VALID,0.117188,
2013-01-24, 01:51:05,VALID,918.395,VALID,0,VALID,97.1909,VALID,0,VALID,18.9438,VALID,127,VALID,0,
2013-01-24, 01:52:05,VALID,918.383,VALID,0,VALID,97.1986,VALID,0.107441,VALID,18.9633,VALID,127,VALID,0.580078,
2013-01-24, 01:53:05,VALID,918.392,VALID,0,VALID,97.1986,VALID,0,VALID,18.9633,VALID,127,VALID,0.280859,
2013-01-24, 01:54:05,VALID,918.355,VALID,0,VALID,97.2062,VALID,0,VALID,18.9633,VALID,127,VALID,0.484766,
2013-01-24, 01:55:05,VALID,918.376,VALID,0,VALID,97.229,VALID,0,VALID,18.9633,VALID,127,VALID,0.341016,
2013-01-24, 01:56:05,VALID,918.348,VALID,0,VALID,97.2443,VALID,0,VALID,18.9842,VALID,127,VALID,0.0746094,
2013-01-24, 01:57:05,VALID,918.392,VALID,0,VALID,97.2367,VALID,0,VALID,19.0023,VALID,127,VALID,0.111719,
2013-01-24, 01:58:05,VALID,918.385,VALID,0,VALID,97.2443,VALID,0,VALID,19.0622,VALID,127,VALID,0,
2013-01-24, 01:59:05,VALID,918.373,VALID,0,VALID,97.2595,VALID,0,VALID,19.0608,VALID,127,VALID,0.422656,
2013-01-24, 02:00:05,VALID,918.364,VALID,0,VALID,97.2519,VALID,0,VALID,19.0803,VALID,127,VALID,0.349609,
2013-01-24, 02:01:05,VALID,918.422,VALID,0,VALID,97.2519,VALID,0,VALID,19.0817,VALID,127,VALID,0.192578,
2013-01-24, 02:02:05,VALID,918.382,VALID,0,VALID,97.2519,VALID,0,VALID,19.0817,VALID,127,VALID,0,
2013-01-24, 02:03:05,VALID,918.342,VALID,0,VALID,97.2672,VALID,0,VALID,19.0622,VALID,127,VALID,0.142188,
2013-01-24, 02:04:05,VALID,918.347,VALID,0,VALID,97.2748,VALID,0,VALID,19.0427,VALID,127,VALID,0.284375,
2013-01-24, 02:05:05,VALID,918.325,VALID,0,VALID,97.2519,VALID,0,VALID,19.0637,VALID,127,VALID,0,
2013-01-24, 02:06:05,VALID,918.305,VALID,0,VALID,97.2595,VALID,0.107441,VALID,19.0803,VALID,127,VALID,0.533203,
2013-01-24, 02:07:05,VALID,918.277,VALID,0,VALID,97.2672,VALID,0.107441,VALID,19.0803,VALID,127,VALID,0.485547,
2013-01-24, 02:08:05,VALID,918.247,VALID,0,VALID,97.2748,VALID,0,VALID,19.0998,VALID,127,VALID,0.532422,
2013-01-24, 02:09:05,VALID,918.268,VALID,0,VALID,97.2595,VALID,0,VALID,19.1388,VALID,127,VALID,0.571875,
2013-01-24, 02:10:05,VALID,918.256,VALID,0,VALID,97.29,VALID,0,VALID,19.1388,VALID,127,VALID,0.431641,
2013-01-24, 02:11:05,VALID,918.299,VALID,0,VALID,97.29,VALID,0,VALID,19.1388,VALID,127,VALID,0.597656,
2013-01-24, 02:12:05,VALID,918.286,VALID,0,VALID,97.2824,VALID,0,VALID,19.1597,VALID,127,VALID,0.64375,
2013-01-24, 02:13:05,VALID,918.284,VALID,0,VALID,97.2672,VALID,0,VALID,19.1193,VALID,127,VALID,0.580469,
2013-01-24, 02:14:05,VALID,918.284,VALID,0,VALID,97.2824,VALID,0,VALID,19.0608,VALID,127,VALID,0.775781,
2013-01-24, 02:15:05,VALID,918.278,VALID,0,VALID,97.2824,VALID,0,VALID,19.0413,VALID,100,VALID,1.14414,
2013-01-24, 02:16:05,VALID,918.291,VALID,0,VALID,97.29,VALID,0,VALID,19.0023,VALID,100,VALID,1.01758,
2013-01-24, 02:17:05,VALID,918.28,VALID,0,VALID,97.2748,VALID,0.107441,VALID,18.9633,VALID,112,VALID,0.753906,
2013-01-24, 02:18:05,VALID,918.284,VALID,0,VALID,97.2824,VALID,0,VALID,18.9438,VALID,112,VALID,0.741016,
2013-01-24, 02:19:05,VALID,918.309,VALID,0,VALID,97.2748,VALID,0,VALID,18.9633,VALID,131,VALID,1.02148,
2013-01-24, 02:20:05,VALID,918.349,VALID,0,VALID,97.2824,VALID,0.107441,VALID,18.9633,VALID,135,VALID,0.970312,
2013-01-24, 02:21:05,VALID,918.372,VALID,0,VALID,97.3129,VALID,0,VALID,18.9452,VALID,141,VALID,0.778516,
2013-01-24, 02:22:05,VALID,918.423,VALID,0,VALID,97.29,VALID,0,VALID,18.9452,VALID,141,VALID,0.790625,
2013-01-24, 02:23:05,VALID,918.476,VALID,0,VALID,97.2977,VALID,0,VALID,18.9452,VALID,141,VALID,0.398828,
2013-01-24, 02:24:05,VALID,918.52,VALID,0,VALID,97.3129,VALID,0,VALID,18.9647,VALID,141,VALID,0.558594,
2013-01-24, 02:25:05,VALID,918.555,VALID,0,VALID,97.3358,VALID,0,VALID,18.9842,VALID,141,VALID,0.0230469,
2013-01-24, 02:26:05,VALID,918.544,VALID,0,VALID,97.3129,VALID,0,VALID,19.0622,VALID,141,VALID,0.376172,
2013-01-24, 02:27:05,VALID,918.514,VALID,0,VALID,97.3358,VALID,0,VALID,19.0817,VALID,141,VALID,0.528516,
2013-01-24, 02:28:05,VALID,918.503,VALID,0,VALID,97.3129,VALID,0,VALID,19.0817,VALID,141,VALID,0.257813,
2013-01-24, 02:29:05,VALID,918.456,VALID,0,VALID,97.3434,VALID,0,VALID,19.1222,VALID,141,VALID,0.640625,
2013-01-24, 02:30:04,VALID,918.442,VALID,0,VALID,97.3205,VALID,0,VALID,19.1193,VALID,140,VALID,0.357422,
2013-01-24, 02:31:04,VALID,918.422,VALID,0,VALID,97.3358,VALID,0,VALID,19.1402,VALID,140,VALID,0.161328,
2013-01-24, 02:32:04,VALID,918.44,VALID,0,VALID,97.3281,VALID,0,VALID,19.1597,VALID,140,VALID,0.569531,
2013-01-24, 02:33:04,VALID,918.42,VALID,0,VALID,97.3281,VALID,0,VALID,19.1597,VALID,140,VALID,0.620313,
2013-01-24, 02:34:04,VALID,918.438,VALID,0,VALID,97.3129,VALID,0,VALID,19.1792,VALID,140,VALID,0.686328,
2013-01-24, 02:35:04,VALID,918.452,VALID,0,VALID,97.3434,VALID,0,VALID,19.1807,VALID,140,VALID,0.65,
2013-01-24, 02:36:04,VALID,918.45,VALID,0,VALID,97.3358,VALID,0,VALID,19.1778,VALID,140,VALID,0.4625,
2013-01-24, 02:37:04,VALID,918.45,VALID,0,VALID,97.3281,VALID,0,VALID,19.1778,VALID,140,VALID,0.648438,
2013-01-24, 02:38:04,VALID,918.443,VALID,0,VALID,97.3358,VALID,0,VALID,19.1778,VALID,133,VALID,0.927734,
2013-01-24, 02:39:04,VALID,918.434,VALID,0,VALID,97.3358,VALID,0,VALID,19.1583,VALID,114,VALID,1.0832,
2013-01-24, 02:40:04,VALID,918.436,VALID,0,VALID,97.351,VALID,0,VALID,19.1193,VALID,105,VALID,1.06289,
2013-01-24, 02:41:04,VALID,918.466,VALID,0,VALID,97.351,VALID,0,VALID,19.0803,VALID,110,VALID,1.01328,
2013-01-24, 02:42:04,VALID,918.43,VALID,0,VALID,97.3205,VALID,0,VALID,19.0608,VALID,102,VALID,0.985547,
2013-01-24, 02:43:04,VALID,918.441,VALID,0,VALID,97.3358,VALID,0,VALID,19.0817,VALID,112,VALID,0.778125,
2013-01-24, 02:44:04,VALID,918.458,VALID,0,VALID,97.3281,VALID,0,VALID,19.0608,VALID,112,VALID,1.0668,
2013-01-24, 02:45:04,VALID,918.492,VALID,0,VALID,97.3434,VALID,0,VALID,19.0608,VALID,112,VALID,0.669531,
2013-01-24, 02:46:04,VALID,918.47,VALID,0,VALID,97.351,VALID,0,VALID,19.0803,VALID,112,VALID,0.696875,
2013-01-24, 02:47:04,VALID,918.462,VALID,0,VALID,97.351,VALID,0,VALID,19.0803,VALID,112,VALID,0.757422,
2013-01-24, 02:48:04,VALID,918.443,VALID,0,VALID,97.351,VALID,0,VALID,19.0803,VALID,112,VALID,0.865625,
2013-01-24, 02:49:04,VALID,918.467,VALID,0,VALID,97.3586,VALID,0,VALID,19.0998,VALID,136,VALID,0.999609,
2013-01-24, 02:50:04,VALID,918.468,VALID,0,VALID,97.3586,VALID,0.107441,VALID,19.0998,VALID,136,VALID,0.622656,
2013-01-24, 02:51:04,VALID,918.459,VALID,0,VALID,97.351,VALID,0,VALID,19.1207,VALID,136,VALID,0.648828,
2013-01-24, 02:52:04,VALID,918.433,VALID,0,VALID,97.3586,VALID,0,VALID,19.1207,VALID,136,VALID,0.767578,
2013-01-24, 02:53:04,VALID,918.443,VALID,0,VALID,97.3586,VALID,0,VALID,19.1012,VALID,136,VALID,0.691797,
2013-01-24, 02:54:04,VALID,918.455,VALID,0,VALID,97.3663,VALID,0,VALID,19.0817,VALID,136,VALID,0.726172,
2013-01-24, 02:55:04,VALID,918.473,VALID,0,VALID,97.3586,VALID,0,VALID,19.1012,VALID,121,VALID,0.866016,
2013-01-24, 02:56:04,VALID,918.448,VALID,0,VALID,97.3815,VALID,0,VALID,19.0817,VALID,121,VALID,0.683984,
2013-01-24, 02:57:04,VALID,918.465,VALID,0,VALID,97.3586,VALID,0,VALID,19.0817,VALID,121,VALID,0.982813,
2013-01-24, 02:58:04,VALID,918.443,VALID,0,VALID,97.3663,VALID,0,VALID,19.0622,VALID,121,VALID,0.668359,
2013-01-24, 02:59:04,VALID,918.419,VALID,0,VALID,97.3663,VALID,0,VALID,19.0622,VALID,121,VALID,0.694531,
2013-01-24, 03:00:04,VALID,918.419,VALID,0,VALID,97.3891,VALID,0,VALID,19.0413,VALID,121,VALID,0.591797,
2013-01-24, 03:01:04,VALID,918.411,VALID,0,VALID,97.3891,VALID,0,VALID,19.0232,VALID,121,VALID,0.517578,
2013-01-24, 03:02:04,VALID,918.433,VALID,0,VALID,97.3968,VALID,0,VALID,18.9842,VALID,121,VALID,0.298438,
2013-01-24, 03:03:04,VALID,918.422,VALID,0,VALID,97.3739,VALID,0,VALID,18.9647,VALID,121,VALID,0.540234,
2013-01-24, 03:04:04,VALID,918.429,VALID,0,VALID,97.3815,VALID,0,VALID,18.9633,VALID,121,VALID,0.505469,
2013-01-24, 03:05:04,VALID,918.408,VALID,0,VALID,97.3968,VALID,0,VALID,18.9647,VALID,121,VALID,0.386719,
2013-01-24, 03:06:04,VALID,918.44,VALID,0,VALID,97.3891,VALID,0,VALID,18.9257,VALID,121,VALID,0.546484,
2013-01-24, 03:07:04,VALID,918.383,VALID,0,VALID,97.3968,VALID,0,VALID,18.9647,VALID,121,VALID,0.635938,
2013-01-24, 03:08:04,VALID,918.393,VALID,0,VALID,97.3891,VALID,0,VALID,18.9647,VALID,121,VALID,0.178906,
2013-01-24, 03:09:04,VALID,918.408,VALID,0,VALID,97.3891,VALID,0,VALID,18.9647,VALID,121,VALID,0.762109,
2013-01-24, 03:10:04,VALID,918.354,VALID,0,VALID,97.412,VALID,0,VALID,18.9842,VALID,121,VALID,0.834375,
2013-01-24, 03:11:04,VALID,918.357,VALID,0,VALID,97.3891,VALID,0,VALID,19.0037,VALID,121,VALID,0.785937,
2013-01-24, 03:12:04,VALID,918.39,VALID,0,VALID,97.3968,VALID,0,VALID,19.0037,VALID,129,VALID,0.960156,
2013-01-24, 03:13:04,VALID,918.358,VALID,0,VALID,97.3891,VALID,0,VALID,19.0037,VALID,129,VALID,0.823438,
2013-01-24, 03:14:04,VALID,918.341,VALID,0,VALID,97.412,VALID,0,VALID,19.0052,VALID,117,VALID,1.03594,
2013-01-24, 03:15:04,VALID,918.335,VALID,0,VALID,97.3891,VALID,0,VALID,18.9842,VALID,114,VALID,1.15,
2013-01-24, 03:16:04,VALID,918.308,VALID,0,VALID,97.4044,VALID,0,VALID,18.9452,VALID,114,VALID,1.05195,
2013-01-24, 03:17:04,VALID,918.303,VALID,0,VALID,97.4044,VALID,0,VALID,18.9647,VALID,114,VALID,1.00977,
2013-01-24, 03:18:04,VALID,918.276,VALID,0,VALID,97.3968,VALID,0,VALID,18.9452,VALID,114,VALID,0.934766,
2013-01-24, 03:19:04,VALID,918.295,VALID,0,VALID,97.3815,VALID,0,VALID,18.9842,VALID,114,VALID,0.96875,
2013-01-24, 03:20:04,VALID,918.298,VALID,0,VALID,97.4044,VALID,0,VALID,18.9857,VALID,114,VALID,1.01992,
2013-01-24, 03:21:04,VALID,918.292,VALID,0,VALID,97.412,VALID,0,VALID,18.9633,VALID,114,VALID,0.608594,
2013-01-24, 03:22:04,VALID,918.266,VALID,0,VALID,97.4044,VALID,0,VALID,18.9438,VALID,114,VALID,0.754297,
2013-01-24, 03:23:04,VALID,918.274,VALID,0,VALID,97.3968,VALID,0,VALID,19.0023,VALID,124,VALID,0.576563,
2013-01-24, 03:24:04,VALID,918.267,VALID,0,VALID,97.412,VALID,0,VALID,19.0023,VALID,124,VALID,0.564062,
2013-01-24, 03:25:04,VALID,918.293,VALID,0,VALID,97.412,VALID,0,VALID,19.0023,VALID,124,VALID,0,
2013-01-24, 03:26:04,VALID,918.274,VALID,0,VALID,97.412,VALID,0,VALID,18.9438,VALID,124,VALID,0.00273437,
2013-01-24, 03:27:04,VALID,918.271,VALID,0,VALID,97.3815,VALID,0,VALID,18.8282,VALID,124,VALID,0.362891,
2013-01-24, 03:28:04,VALID,918.281,VALID,0,VALID,97.3815,VALID,0,VALID,18.7878,VALID,124,VALID,0.492578,
2013-01-24, 03:29:04,VALID,918.263,VALID,0,VALID,97.3739,VALID,0,VALID,18.7488,VALID,124,VALID,0.442187,
2013-01-24, 03:30:04,VALID,918.256,VALID,0,VALID,97.3891,VALID,0,VALID,18.7683,VALID,124,VALID,0.528516,
2013-01-24, 03:31:04,VALID,918.248,VALID,0,VALID,97.3815,VALID,0,VALID,18.8073,VALID,124,VALID,0.587109,
2013-01-24, 03:32:04,VALID,918.244,VALID,0,VALID,97.4044,VALID,0,VALID,18.7488,VALID,124,VALID,0.492969,
2013-01-24, 03:33:04,VALID,918.239,VALID,0,VALID,97.3968,VALID,0,VALID,18.6903,VALID,124,VALID,0.403125,
2013-01-24, 03:34:04,VALID,918.223,VALID,0,VALID,97.3968,VALID,0,VALID,18.7488,VALID,124,VALID,0.547656,
2013-01-24, 03:35:04,VALID,918.2,VALID,0,VALID,97.4349,VALID,0,VALID,18.8268,VALID,124,VALID,0.694141,
2013-01-24, 03:36:04,VALID,918.214,VALID,0,VALID,97.4273,VALID,0.107441,VALID,18.8463,VALID,125,VALID,0.610156,
2013-01-24, 03:37:04,VALID,918.2,VALID,0,VALID,97.4196,VALID,0,VALID,18.8073,VALID,125,VALID,0.460938,
2013-01-24, 03:38:04,VALID,918.224,VALID,0,VALID,97.412,VALID,0,VALID,18.7878,VALID,125,VALID,0.445703,
2013-01-24, 03:39:04,VALID,918.174,VALID,0,VALID,97.4273,VALID,0,VALID,18.7878,VALID,125,VALID,0.560547,
2013-01-24, 03:40:04,VALID,918.175,VALID,0,VALID,97.4196,VALID,0.107441,VALID,18.7683,VALID,125,VALID,0.566406,
2013-01-24, 03:41:04,VALID,918.183,VALID,0,VALID,97.4196,VALID,0,VALID,18.7878,VALID,125,VALID,0.724219,
2013-01-24, 03:42:04,VALID,918.171,VALID,0,VALID,97.4349,VALID,0,VALID,18.7669,VALID,125,VALID,0.707812,
2013-01-24, 03:43:04,VALID,918.191,VALID,0,VALID,97.4273,VALID,0,VALID,18.7683,VALID,125,VALID,0.70625,
2013-01-24, 03:44:04,VALID,918.212,VALID,0,VALID,97.4273,VALID,0,VALID,18.7683,VALID,125,VALID,0.860156,